Time,TemperatureF,DewpointF,PressureIn,WindDirection,WindDirectionDegrees,WindSpeedMPH,WindSpeedGustMPH,Humidity,HourlyPrecipIn,Conditions,Clouds,dailyrainin,SolarRadiationWatts/m^2,SoftwareType,DateUTC
2013-08-29 00:05:00,75.0,70.0,-100.00,WSW,237,2.0,6.0,84,0.00,,,0.00,0.000000,,2013-08-29 05:05:00,
2013-08-29 00:42:00,74.0,69.0,-100.00,WSW,241,3.0,4.0,85,0.00,,,0.00,0.000000,,2013-08-29 05:42:00,
2013-08-29 00:52:00,74.0,69.0,-100.00,WSW,241,3.0,4.0,85,0.00,,,0.00,0.000000,,2013-08-29 05:52:00,
2013-08-29 01:02:00,74.0,69.0,-100.00,WSW,241,3.0,4.0,85,0.00,,,0.00,0.000000,,2013-08-29 06:02:00,
2013-08-29 01:43:00,74.0,70.0,-100.00,WSW,239,1.0,5.0,88,0.00,,,0.00,0.000000,,2013-08-29 06:43:00,
2013-08-29 01:52:00,74.0,70.0,-100.00,WSW,239,1.0,5.0,88,0.00,,,0.00,0.000000,,2013-08-29 06:52:00,
2013-08-29 02:01:00,74.0,70.0,-100.00,WSW,239,1.0,5.0,88,0.00,,,0.00,0.000000,,2013-08-29 07:01:00,
2013-08-29 02:42:00,74.0,70.0,-100.00,North,356,1.0,4.0,88,0.00,,,0.00,0.000000,,2013-08-29 07:42:00,
2013-08-29 02:53:00,74.0,70.0,-100.00,North,356,1.0,4.0,88,0.00,,,0.00,0.000000,,2013-08-29 07:53:00,
2013-08-29 03:02:00,74.0,70.0,-100.00,North,356,1.0,4.0,88,0.00,,,0.00,0.000000,,2013-08-29 08:02:00,
2013-08-29 03:42:00,74.0,71.0,-100.00,WNW,291,2.0,5.0,89,0.00,,,0.00,0.000000,,2013-08-29 08:42:00,
2013-08-29 03:52:00,74.0,71.0,-100.00,WNW,291,2.0,5.0,89,0.00,,,0.00,0.000000,,2013-08-29 08:52:00,
2013-08-29 04:01:00,74.0,71.0,-100.00,WNW,291,2.0,5.0,89,0.00,,,0.00,0.000000,,2013-08-29 09:01:00,
2013-08-29 04:06:00,74.0,70.0,-100.00,WSW,255,3.0,7.0,87,0.00,,,0.00,0.000000,,2013-08-29 09:06:00,
2013-08-29 04:43:00,74.0,70.0,-100.00,WSW,255,3.0,7.0,87,0.00,,,0.00,0.000000,,2013-08-29 09:43:00,
2013-08-29 04:55:00,74.0,70.0,-100.00,WSW,255,3.0,7.0,87,0.00,,,0.00,0.000000,,2013-08-29 09:55:00,
2013-08-29 05:43:00,75.0,70.0,-100.00,West,261,3.0,7.0,84,0.00,,,0.00,0.000000,,2013-08-29 10:43:00,
2013-08-29 05:53:00,75.0,70.0,-100.00,West,261,3.0,7.0,84,0.00,,,0.00,0.000000,,2013-08-29 10:53:00,
2013-08-29 06:03:00,75.0,70.0,-100.00,West,261,3.0,7.0,84,0.00,,,0.00,0.000000,,2013-08-29 11:03:00,
2013-08-29 06:42:00,75.0,70.0,-100.00,West,271,2.0,6.0,84,0.00,,,0.00,0.000000,,2013-08-29 11:42:00,
2013-08-29 06:52:00,75.0,70.0,-100.00,West,271,2.0,6.0,84,0.00,,,0.00,0.000000,,2013-08-29 11:52:00,
2013-08-29 07:02:00,75.0,70.0,-100.00,West,271,2.0,6.0,84,0.00,,,0.00,0.000000,,2013-08-29 12:02:00,
2013-08-29 07:42:00,74.0,70.0,-100.00,WSW,256,3.0,8.0,87,0.00,,,0.00,12.000000,,2013-08-29 12:42:00,
2013-08-29 07:52:00,74.0,70.0,-100.00,WSW,256,3.0,8.0,87,0.00,,,0.00,12.000000,,2013-08-29 12:52:00,
2013-08-29 08:02:00,74.0,70.0,-100.00,WSW,256,3.0,8.0,87,0.00,,,0.00,12.000000,,2013-08-29 13:02:00,
2013-08-29 08:42:00,76.0,70.0,-100.00,West,266,2.0,6.0,83,0.00,,,0.00,59.000000,,2013-08-29 13:42:00,
2013-08-29 08:52:00,76.0,70.0,-100.00,West,266,2.0,6.0,83,0.00,,,0.00,59.000000,,2013-08-29 13:52:00,
2013-08-29 09:02:00,76.0,70.0,-100.00,West,266,2.0,6.0,83,0.00,,,0.00,59.000000,,2013-08-29 14:02:00,
2013-08-29 09:42:00,79.0,72.0,-100.00,West,277,3.0,7.0,79,0.00,,,0.00,164.000000,,2013-08-29 14:42:00,
2013-08-29 09:52:00,79.0,72.0,-100.00,West,277,3.0,7.0,79,0.00,,,0.00,164.000000,,2013-08-29 14:52:00,
2013-08-29 10:02:00,79.0,72.0,-100.00,West,277,3.0,7.0,79,0.00,,,0.00,164.000000,,2013-08-29 15:02:00,
2013-08-29 10:43:00,82.0,73.0,-100.00,NW,309,2.0,7.0,74,0.00,,,0.00,251.000000,,2013-08-29 15:43:00,
2013-08-29 10:53:00,82.0,73.0,-100.00,NW,309,2.0,7.0,74,0.00,,,0.00,251.000000,,2013-08-29 15:53:00,
2013-08-29 11:05:00,82.0,73.0,-100.00,NW,309,2.0,7.0,74,0.00,,,0.00,251.000000,,2013-08-29 16:05:00,
2013-08-29 11:54:00,87.0,75.0,-100.00,West,265,3.0,6.0,67,0.00,,,0.00,444.000000,,2013-08-29 16:54:00,
2013-08-29 12:03:00,87.0,75.0,-100.00,West,265,3.0,6.0,67,0.00,,,0.00,444.000000,,2013-08-29 17:03:00,
2013-08-29 12:44:00,86.0,71.0,-100.00,North,353,3.0,7.0,61,0.00,,,0.00,487.000000,,2013-08-29 17:44:00,
2013-08-29 12:53:00,86.0,71.0,-100.00,North,353,3.0,7.0,61,0.00,,,0.00,487.000000,,2013-08-29 17:53:00,
2013-08-29 13:02:00,86.0,71.0,-100.00,North,353,3.0,7.0,61,0.00,,,0.00,487.000000,,2013-08-29 18:02:00,
2013-08-29 13:42:00,89.0,74.0,-100.00,North,3,3.0,9.0,62,0.00,,,0.00,630.000000,,2013-08-29 18:42:00,
2013-08-29 13:52:00,89.0,74.0,-100.00,North,3,3.0,9.0,62,0.00,,,0.00,630.000000,,2013-08-29 18:52:00,
2013-08-29 14:01:00,89.0,74.0,-100.00,North,3,3.0,9.0,62,0.00,,,0.00,630.000000,,2013-08-29 19:01:00,
2013-08-29 14:42:00,91.0,74.0,-100.00,West,260,2.0,9.0,57,0.00,,,0.00,569.000000,,2013-08-29 19:42:00,
2013-08-29 14:53:00,91.0,74.0,-100.00,West,260,2.0,9.0,57,0.00,,,0.00,569.000000,,2013-08-29 19:53:00,
2013-08-29 15:02:00,91.0,74.0,-100.00,West,260,2.0,9.0,57,0.00,,,0.00,569.000000,,2013-08-29 20:02:00,
2013-08-29 15:42:00,92.0,73.0,-100.00,NW,304,4.0,8.0,55,0.00,,,0.00,639.000000,,2013-08-29 20:42:00,
2013-08-29 15:52:00,92.0,73.0,-100.00,NW,304,4.0,8.0,55,0.00,,,0.00,639.000000,,2013-08-29 20:52:00,
2013-08-29 16:01:00,92.0,73.0,-100.00,NW,304,4.0,8.0,55,0.00,,,0.00,639.000000,,2013-08-29 21:01:00,
2013-08-29 16:44:00,91.0,74.0,-100.00,NNW,330,4.0,14.0,58,0.00,,,0.00,495.000000,,2013-08-29 21:44:00,
2013-08-29 16:54:00,91.0,74.0,-100.00,NNW,330,4.0,14.0,58,0.00,,,0.00,495.000000,,2013-08-29 21:54:00,
2013-08-29 17:04:00,91.0,74.0,-100.00,NNW,330,4.0,14.0,58,0.00,,,0.00,495.000000,,2013-08-29 22:04:00,
2013-08-29 17:43:00,87.0,73.0,-100.00,NW,321,3.0,9.0,63,0.00,,,0.00,236.000000,,2013-08-29 22:43:00,
2013-08-29 17:53:00,87.0,73.0,-100.00,NW,321,3.0,9.0,63,0.00,,,0.00,236.000000,,2013-08-29 22:53:00,
2013-08-29 18:03:00,87.0,73.0,-100.00,NW,321,3.0,9.0,63,0.00,,,0.00,236.000000,,2013-08-29 23:03:00,
2013-08-29 18:43:00,84.0,76.0,-100.00,East,86,1.0,6.0,77,0.00,,,0.00,101.000000,,2013-08-29 23:43:00,
2013-08-29 18:53:00,84.0,76.0,-100.00,East,86,1.0,6.0,77,0.00,,,0.00,101.000000,,2013-08-29 23:53:00,
2013-08-29 19:02:00,84.0,76.0,-100.00,East,86,1.0,6.0,77,0.00,,,0.00,101.000000,,2013-08-30 00:02:00,
2013-08-29 19:42:00,82.0,76.0,-100.00,North,351,3.0,7.0,82,0.00,,,0.00,31.000000,,2013-08-30 00:42:00,
2013-08-29 19:52:00,82.0,76.0,-100.00,North,351,3.0,7.0,82,0.00,,,0.00,31.000000,,2013-08-30 00:52:00,
2013-08-29 20:01:00,82.0,76.0,-100.00,North,351,3.0,7.0,82,0.00,,,0.00,31.000000,,2013-08-30 01:01:00,
2013-08-29 20:42:00,78.0,76.0,-100.00,SSW,195,0.0,3.0,93,0.00,,,0.00,1.000000,,2013-08-30 01:42:00,
2013-08-29 20:52:00,78.0,76.0,-100.00,SSW,195,0.0,3.0,93,0.00,,,0.00,1.000000,,2013-08-30 01:52:00,
2013-08-29 21:02:00,78.0,76.0,-100.00,SSW,195,0.0,3.0,93,0.00,,,0.00,1.000000,,2013-08-30 02:02:00,
2013-08-29 21:42:00,77.0,76.0,-100.00,SSE,151,0.0,2.0,97,0.00,,,0.00,0.000000,,2013-08-30 02:42:00,
2013-08-29 21:52:00,77.0,76.0,-100.00,SSE,151,0.0,2.0,97,0.00,,,0.00,0.000000,,2013-08-30 02:52:00,
2013-08-29 22:02:00,77.0,76.0,-100.00,SSE,151,0.0,2.0,97,0.00,,,0.00,0.000000,,2013-08-30 03:02:00,
2013-08-29 22:43:00,76.0,76.0,-100.00,SW,236,1.0,3.0,99,0.00,,,0.00,0.000000,,2013-08-30 03:43:00,
2013-08-29 22:55:00,76.0,76.0,-100.00,SW,236,1.0,3.0,99,0.00,,,0.00,0.000000,,2013-08-30 03:55:00,
2013-08-29 23:04:00,76.0,76.0,-100.00,SW,236,1.0,3.0,99,0.00,,,0.00,0.000000,,2013-08-30 04:04:00,
2013-08-29 23:44:00,76.0,76.0,-100.00,SW,228,1.0,2.0,100,0.00,,,0.00,0.000000,,2013-08-30 04:44:00,
2013-08-29 23:54:00,76.0,76.0,-100.00,SW,228,1.0,2.0,100,0.00,,,0.00,0.000000,,2013-08-30 04:54:00,